EW2825 Weather Reports


time (UTC)temp
C
wind
direction
speed
KPH
gust
KPH
rain 1hr
cm
rain 24hr
cm
rain mn
cm
humidity
%
barometer
mb
20260505184537 25 296 4.8 0.0 0.00 0.00 0.00 38 999.0
20260505183044 25 355 6.4 0.0 0.00 0.00 0.00 38 999.5
20260505181537 25 81 4.8 0.0 0.00 0.00 0.00 37 999.4
20260505180034 26 312 6.4 0.0 0.00 0.00 0.00 37 999.6
20260505174534 26 326 6.4 0.0 0.00 0.00 0.00 37 999.5
20260505173038 25 262 8.0 0.0 0.00 0.00 0.00 39 999.9
20260505171527 25 300 4.8 0.0 0.00 0.00 0.00 40 1000.3
20260505170027 24 329 4.8 0.0 0.00 0.00 0.00 45 1000.4
20260505164522 23 136 4.8 0.0 0.00 0.00 0.00 47 1000.7
20260505163021 23 347 6.4 0.0 0.00 0.00 0.00 46 1001.2
20260505161525 23 308 3.2 0.0 0.00 0.00 0.00 46 1001.5
20260505153011 22 26 6.4 0.0 0.00 0.00 0.00 48 1002.4
20260505151510 22 306 8.0 0.0 0.00 0.00 0.00 50 1002.1
20260505140112 20 317 4.8 0.0 0.00 0.00 0.00 54 1002.6
20260505124538 10 172 1.6 0.0 0.00 0.00 0.00 85 1003.9
20260505123033 8 168 0.0 0.0 0.00 0.00 0.00 90 1003.9
20260505121532 7 168 0.0 0.0 0.00 0.00 0.00 93 1004.3
20260505120038 7 168 0.0 0.0 0.00 0.00 0.00 94 1004.2
20260505114531 6 169 0.0 0.0 0.00 0.00 0.00 95 1003.9
20260505113033 6 169 0.0 0.0 0.00 0.00 0.00 97 1004.2
20260505111529 6 169 0.0 0.0 0.00 0.00 0.00 97 1004.3
20260505101528 5 169 0.0 0.0 0.00 0.00 0.00 95 1004.2
20260505100027 5 169 0.0 0.0 0.00 0.00 0.00 96 1004.2
20260505094530 5 169 0.0 0.0 0.00 0.00 0.00 96 1004.2
20260505093027 5 169 0.0 0.0 0.00 0.00 0.00 96 1004.2
20260505091526 4 169 0.0 0.0 0.00 0.00 0.00 95 1004.2
20260505090025 5 169 0.0 0.0 0.00 0.00 0.00 95 1004.2
20260505084534 5 169 0.0 0.0 0.00 0.00 0.00 95 1004.2
20260505083022 5 168 0.0 0.0 0.00 0.00 0.00 94 1004.5
20260505081522 5 294 0.0 0.0 0.00 0.00 0.00 94 1004.4
20260505080021 5 294 0.0 0.0 0.00 0.00 0.00 94 1004.7
20260505074519 5 294 0.0 0.0 0.00 0.00 0.00 93 1004.7
20260505073029 5 294 0.0 0.0 0.00 0.00 0.00 93 1004.7
20260505071517 5 294 0.0 0.0 0.00 0.00 0.00 93 1004.4
20260505070026 5 294 0.0 0.0 0.00 0.00 0.00 92 1004.6
20260505064513 5 294 0.0 0.0 0.00 0.00 0.00 92 1004.6
20260505063012 6 223 0.0 0.0 0.00 0.00 0.00 91 1004.7
20260505061510 6 223 1.6 0.0 0.00 0.00 0.00 91 1004.8
20260505060006 6 221 0.0 0.0 0.00 0.00 0.00 89 1004.8
20260505054506 6 221 0.0 0.0 0.00 0.00 0.00 89 1004.7
20260505053004 6 221 1.6 0.0 0.00 0.00 0.00 89 1004.4
20260505051502 7 178 0.0 0.0 0.00 0.00 0.00 87 1004.6
20260505041557 8 277 0.0 0.0 0.00 0.00 0.00 82 1004.3
20260505040054 8 277 0.0 0.0 0.00 0.00 0.00 81 1004.2
20260505034549 8 277 1.6 0.0 0.00 0.00 0.00 81 1004.1
20260505033046 8 277 0.0 0.0 0.00 0.00 0.00 80 1004.1
20260505031553 9 277 0.0 0.0 0.00 0.00 0.00 79 1003.8
20260505030042 9 277 0.0 0.0 0.00 0.00 0.00 78 1003.7
20260505024554 9 277 0.0 0.0 0.00 0.00 0.00 78 1003.7
20260505023041 10 277 0.0 0.0 0.00 0.00 0.00 76 1003.6
20260505021540 10 277 0.0 0.0 0.00 0.00 0.00 75 1003.8
20260505020040 11 277 0.0 0.0 0.00 0.00 0.00 73 1003.7
20260505014559 11 277 0.0 0.0 0.00 0.00 0.00 71 1003.6
20260505013039 11 277 0.0 0.0 0.00 0.00 0.00 70 1003.4
20260505011543 12 277 0.0 0.0 0.00 0.00 0.00 67 1003.3
20260505010038 12 277 0.0 0.0 0.00 0.00 0.00 65 1003.3
20260505004541 13 277 0.0 0.0 0.00 0.00 0.00 63 1003.1
20260505003038 13 277 0.0 0.0 0.00 0.00 0.00 60 1002.8
20260505001537 14 277 0.0 0.0 0.00 0.00 0.00 58 1002.3
20260505000048 15 277 1.6 0.0 0.00 0.00 0.00 56 1002.3
20260504234545 16 304 0.0 0.0 0.00 0.00 0.00 51 1002.2
20260504233054 16 304 1.6 0.0 0.00 0.00 0.00 47 1001.7
20260504231537 17 325 1.6 0.0 0.00 0.00 0.00 45 1001.6
20260504230037 17 39 1.6 0.0 0.00 0.00 0.00 44 1001.6
20260504224539 18 296 1.6 0.0 0.00 0.00 0.00 42 1001.5
20260504223053 18 45 1.6 0.0 0.00 0.00 0.00 43 1001.3
20260504221536 18 300 6.4 0.0 0.00 0.00 0.00 41 1001.2
20260504220033 18 322 4.8 0.0 0.00 0.00 0.00 42 1001.2
20260504214532 18 302 3.2 0.0 0.00 0.00 0.00 43 1001.2
20260504213045 18 19 4.8 0.0 0.00 0.00 0.00 42 1001.2
20260504211534 17 15 3.2 0.0 0.00 0.00 0.00 44 1001.4
20260504210030 18 306 6.4 0.0 0.00 0.00 0.00 41 1001.3
20260504204540 18 310 1.6 0.0 0.00 0.00 0.00 43 1001.2
20260504203027 18 40 3.2 0.0 0.00 0.00 0.00 44 1001.3
20260504201525 17 315 3.2 0.0 0.00 0.00 0.00 45 1001.3
20260504200025 17 19 4.8 0.0 0.00 0.00 0.00 46 1001.5
20260504194523 17 355 3.2 0.0 0.00 0.00 0.00 48 1001.7
20260504193020 17 350 3.2 0.0 0.00 0.00 0.00 48 1001.8
20260504191514 16 107 3.2 0.0 0.00 0.00 0.00 53 1001.9
20260504190015 16 32 3.2 0.0 0.00 0.00 0.00 53 1002.3